Location: Unspecified
(0.0000°N, 0.0000°E)
Time: 01:02:59
(UTC+00:00)

BEESAT - Pass Details

Date: 31 May 2019
Orbit: 701 x 709 km, 98.6° (Epoch: 16 June)

Event Time Altitude Azimuth Distance (km) Brightness Sun altitude
Rises 04:22:43 0° 163° (SSE) 3,097 ? -21.9°
Reaches altitude 10° 04:25:00 10° 160° (SSE) 2,177 ? -21.4°
Maximum altitude 04:29:44 66° 78° (ENE) 770 ? -20.3°
Drops below altitude 10° 04:34:27 10° 356° (N) 2,171 ? -19.2°
Sets 04:36:43 0° 353° (N) 3,088 ? -18.7°
